STARLINK-30086, 56297

Orbit data source: Space-Track

STARLINK-30086, 56297 is a payload satellite owned by SpaceX/Seattle (US) in LEO that was launched on Wed, 19 Apr 2023 UTC via an FALCON 9 launch vehicle from the Air Force Eastern Test Range (AFETR). Payload-class satellites include a variety of spacecraft equipped with specific instruments for various scientific and technological missions. These include communications satellites like Starlink; space stations such as the ISS; scientific satellites like the Hubble; Earth observation satellites from companies like Planet Labs, Umbra, and HawkEye 360; GPS; miniature CubeSats for education and research; and military/defense satellites.

Loading next visibility...
Identifier
56297, 2023-056M
Orbit
LEO
Country
Flag of USUS
Related business
Manufacturer
SpaceX/Seattle
Mission
Operational Commercial Communications
Bus & Motor
STARLINK V2M, Unknown motor
Mass
730 kg wet, ~700 kg dry
Launch date (UTC)
2023-04-19 (3 years ago)
Launch vehicle
FALCON 9
Launch site
Air Force Eastern Test Range (AFETR)
Object type
Payload
Rocket body
Debris
Shape & HBR
Box + 2 Pan, 17.7 m
Radar Cross Section
33.884 m², Large (>1 m²)

Expand to show TLE details & history
Last TLE update: 2 days ago

TLE from 2 days ago
0 STARLINK-30086
1 56297U 23056M   26171.18901546 -.00000724  00000-0 -16786-4 0  9993
2 56297  43.0031 350.1741 0001497 288.0058  72.0630 15.27570489175712
Epoch: 2026-06-20T04:32Z
TLE epoch observation values (Epoch: 2026-06-20T04:32:10.935Z)
Latitude
-0.00006°
Longitude
13.72126°
Altitude
482.537 km
Speed
7.626 km/s
True Right ascension
23h 20m 41s
True Declination
0° 00' 00"
Sunlit
Object was in daylight at epoch
Visualization orbit readout
Latitude
Unknown
Longitude
Unknown
Altitude
Unknown
Speed
Unknown
Apparent Right ascension
Unknown
Apparent Declination
Unknown
Sunlit
N/A
Visualization observer readout
Local Sidereal Time
21:55:04
Azimuth
Unknown
Elevation
Unknown
Doppler factor
Unknown
Orbital elements
Apogee altitude
486.05 km
Perigee altitude
483.995 km
Semi-major axis
6,863.159 km
Eccentricity
0.00015
Inclination
43.0031°
RAAN
350.1741°
Arg. of periapsis
288.0058°
True anomaly
72.07932°
Mean anomaly
72.063°
Eccentric anomaly
72.07116°
Mean motion
3.81731 °/min
Orbital period
94.31 mins
BSTAR
-0.000016786
Loading maneuver chart data...
Computing Atmospheric mass density...
Loading historical data...
Loading historical data...
Loading historical data...
Loading historical data...
Loading historical data...
Loading historical data...
Loading historical data...

Documentation

Showing up to 5 results
|